Location: Chillicothe
(39.7950°N, 93.5520°W)
Time: 09:29:57
(UTC-06:00)

Vanguard 3 - Pass Details

Date: 30 October 2019
Orbit: 508 x 3263 km, 33.3° (Epoch: 11 November)

Event Time Altitude Azimuth Distance (km) Brightness Sun altitude
Rises 02:37:29 0° 260° (W) 2,704 - -56.0°
Reaches altitude 10° 02:41:11 10° 223° (SW) 1,710 - -55.5°
Maximum altitude 02:42:21 11° 204° (SSW) 1,637 - -55.3°
Drops below altitude 10° 02:43:32 10° 185° (S) 1,730 - -55.1°
Sets 02:47:21 0° 148° (SSE) 2,801 - -54.6°
